This is the latest recevied weather packets stored in our database for station/object WA4OPQ-3. If no packets are shown the sender has not sent any weather packets the latest 1 day(s).
| Time | Temp. | Humidity | Pressure | Rain* | Wind** | Luminosity | Snow |
|---|---|---|---|---|---|---|---|
| 1778035941 | 20.56° C | 81% | 1007.7 hPa | 0 mm | 0.45 m/s, 197° | 0 W/m² | - |
| 1778035337 | 20° C | 81% | 1007.5 hPa | 0 mm | 0 m/s | 0 W/m² | - |
| 1778034732 | 20.56° C | 79% | 1007.5 hPa | 0 mm | 0.45 m/s, 182° | 0 W/m² | - |
| 1778034127 | 20.56° C | 79% | 1007.3 hPa | 0 mm | 1.34 m/s, 184° | 0 W/m² | - |
| 1778033522 | 20.56° C | 79% | 1007.4 hPa | 0 mm | 0.45 m/s, 187° | 0 W/m² | - |
| 1778032918 | 20.56° C | 78% | 1007.3 hPa | 0 mm | 0.45 m/s, 59° | 0 W/m² | - |
| 1778032313 | 20.56° C | 78% | 1007.3 hPa | 0 mm | 1.34 m/s, 240° | 0 W/m² | - |
| 1778031707 | 20.56° C | 77% | 1007.4 hPa | 0 mm | 0.45 m/s, 228° | 0 W/m² | - |
| 1778031102 | 20.56° C | 77% | 1007.1 hPa | 0 mm | 0 m/s | 0 W/m² | - |
| 1778030496 | 20.56° C | 76% | 1007.4 hPa | 0 mm | 1.79 m/s, 234° | 0 W/m² | - |
| 1778029892 | 20.56° C | 77% | 1007.1 hPa | 0 mm | 0.89 m/s, 210° | 0 W/m² | - |
| 1778029287 | 20.56° C | 76% | 1007.1 hPa | 0 mm | 1.34 m/s, 197° | 0 W/m² | - |
| 1778028682 | 20.56° C | 77% | 1007.3 hPa | 0 mm | 0.89 m/s, 180° | 0 W/m² | - |
| 1778028076 | 20.56° C | 76% | 1007.5 hPa | 0 mm | 0 m/s | 0 W/m² | - |
| 1778027471 | 20.56° C | 76% | 1007.5 hPa | 0 mm | 0 m/s | 0 W/m² | - |
| 1778026867 | 20.56° C | 74% | 1007.4 hPa | 0 mm | 0.45 m/s, 201° | 0 W/m² | - |
| 1778026262 | 20.56° C | 73% | 1007.2 hPa | 0 mm | 1.79 m/s, 224° | 5 W/m² | - |
| 1778025658 | 20.56° C | 74% | 1006.9 hPa | 0 mm | 0.45 m/s, 191° | 9 W/m² | - |
| 1778025041 | 20.56° C | 73% | 1007.1 hPa | 0 mm | 1.79 m/s, 224° | 8 W/m² | - |
| 1778024435 | 20.56° C | 75% | 1006.9 hPa | 0 mm | 0.45 m/s, 189° | 12 W/m² | - |
| 1778023831 | 20.56° C | 75% | 1007 hPa | 0 mm | 0.45 m/s, 202° | 16 W/m² | - |
| 1778023225 | 20.56° C | 74% | 1007 hPa | 0 mm | 1.34 m/s, 251° | 22 W/m² | - |
| 1778022620 | 20.56° C | 74% | 1007.3 hPa | 0 mm | 0.45 m/s, 210° | 26 W/m² | - |
| 1778022016 | 20.56° C | 72% | 1007.4 hPa | 0 mm | 0.89 m/s, 256° | 64 W/m² | - |
| 1778021410 | 21.11° C | 74% | 1007.2 hPa | 0 mm | 0 m/s | 96 W/m² | - |
* Rain latest hour (hover to see other rain measurements)
** Current wind speed in m/s (hover to see current wind gust speed)